Weather History for Odiham, United Kingdom

Change the Weather History Date:

Saturday, January 5, 2013

  Actual Average (EGUB) Record (EGUB)
Temperature  
Mean Temperature 46 °F -  
Max Temperature 50 °F 45 °F 55 °F (1999)
Min Temperature 41 °F 36 °F 21 °F (2003)
Degree Days  
Heating Degree Days 20    
Moisture  
Dew Point 46 °F    
Average Humidity 93    
Maximum Humidity 100    
Minimum Humidity 85    
Precipitation  
Precipitation 0.01 in - - ()
Sea Level Pressure  
Sea Level Pressure 30.56 in    
Wind  
Wind Speed 7 mph ()    
Max Wind Speed 14 mph    
Max Gust Speed -    
Visibility 7.1 miles    
Events Rain    
Averages and records for this station are not official NWS values.
T = Trace of Precipitation, MM = Missing Value Source: Averaged Metar Reports

Daily Weather History Graph

Daily Weather History Graph

Search for Another Location

Airport:

Trip Planner

Search our weather history database for the weather conditions in past years. The results will help you decide how hot, cold, wet, or windy it might be!

Date:

Astronomy

Jan. 05, 2013 Rise Set
Actual Time 8:07 AM GMT 4:11 PM GMT
Civil Twilight 7:27 AM GMT 4:50 PM GMT
Nautical Twilight 6:45 AM GMT 5:33 PM GMT
Astronomical Twilight 6:05 AM GMT 6:13 PM GMT
Moon 12:30 AM GMT (1/5) 11:16 AM GMT (1/5)
Length of Visible Light 9h 22m
Length of Day
8h 04m
Waning Gibbous, 46% of the Moon is Illuminated
Jan 5
Waning Gibbous
Jan 11
New
Jan 18
First Quarter
Jan 27
Full
Feb 3
Last Quarter

Hourly Weather History & Observations

Time (GMT) Temp. Windchill Dew Point Humidity Pressure Visibility Wind Dir Wind Speed Gust Speed Precip Events Conditions
12:50 AM 44.6 °F 40.2 °F 44.6 °F 100% 30.60 in 3.1 mi WSW 8.1 mph - N/A   Overcast
1:50 AM 46.4 °F 42.9 °F 44.6 °F 93% 30.60 in - WSW 6.9 mph - N/A   Overcast
2:50 AM 46 °F - 46 °F 98% 30.61 in 3 mi WSW 6.9 mph - - Rain Light Drizzle
2:50 AM 46.4 °F 42.9 °F 46.4 °F 100% 30.60 in 3.1 mi WSW 6.9 mph - N/A   Light Drizzle
3:50 AM 46.4 °F 42.4 °F 46.4 °F 100% 30.57 in 3.7 mi WSW 8.1 mph - N/A   Light Drizzle
4:50 AM 46.4 °F 43.5 °F 46.4 °F 100% 30.57 in 6.2 mi SW 5.8 mph - N/A   Light Drizzle
5:50 AM 47 °F - 46 °F 97% 30.58 in 4 mi SW 5.8 mph - - Rain Light Drizzle
5:50 AM 48.2 °F - 46.4 °F 93% 30.54 in 3.7 mi SW 5.8 mph - N/A   Light Drizzle
6:50 AM 48.2 °F - 46.4 °F 93% 30.57 in 3.1 mi WSW 6.9 mph - N/A   Light Drizzle
7:50 AM 48.2 °F - 46.4 °F 93% 30.57 in 6.2 mi SW 5.8 mph - N/A   Overcast
8:50 AM 48 °F - 47 °F 96% 30.60 in 9 mi SW 5.8 mph - -   Partly Cloudy
8:50 AM 48.2 °F - 48.2 °F 100% 30.57 in 6.2 mi SW 5.8 mph - N/A   Overcast
9:50 AM 48.2 °F - 48.2 °F 100% 30.57 in 6.2 mi SSW 6.9 mph - N/A   Overcast
11:50 AM 50 °F - 47 °F 86% 30.60 in 12 mi SW 10.4 mph - -   Partly Cloudy
11:50 AM 50.0 °F - 46.4 °F 87% 30.57 in 6.2 mi SW 10.4 mph - N/A   Overcast
12:50 PM 50.0 °F - 46.4 °F 87% 30.57 in 6.2 mi WSW 13.8 mph - N/A   Overcast
1:50 PM 50.0 °F - 46.4 °F 87% 30.54 in 6.2 mi WSW 11.5 mph - N/A   Overcast
2:50 PM 50 °F - 47 °F 85% 30.56 in 16 mi WSW 12.7 mph - -   Overcast
2:50 PM 50.0 °F - 46.4 °F 87% 30.54 in 6.2 mi WSW 12.7 mph - N/A   Overcast
3:50 PM 50.0 °F - 46.4 °F 87% 30.51 in 6.2 mi WSW 10.4 mph - N/A   Overcast
4:50 PM 50.0 °F - 46.4 °F 87% 30.54 in 6.2 mi WSW 12.7 mph - N/A   Overcast
5:50 PM 50 °F - 47 °F 85% 30.55 in 19 mi WSW 10.4 mph - -   Overcast
5:50 PM 50.0 °F - 46.4 °F 87% 30.54 in 6.2 mi WSW 10.4 mph - N/A   Overcast
6:50 PM 50.0 °F - 46.4 °F 87% 30.54 in 6.2 mi WSW 10.4 mph - N/A   Overcast
7:50 PM 48.2 °F - 44.6 °F 87% 30.54 in 6.2 mi WSW 6.9 mph - N/A   Mostly Cloudy
8:50 PM 44 °F - 43 °F 97% 30.55 in 19 mi SW 4.6 mph - -   Scattered Clouds
8:50 PM 44.6 °F 42.2 °F 42.8 °F 93% 30.51 in 6.2 mi SW 4.6 mph - N/A   Mostly Cloudy
9:50 PM 42.8 °F 38.6 °F 42.8 °F 100% 30.54 in 6.2 mi South 6.9 mph - N/A   Mostly Cloudy
10:50 PM 41.0 °F 38.0 °F 41.0 °F 100% 30.54 in - SSW 4.6 mph - N/A   Clear
11:50 PM 43 °F - 42 °F 97% 30.54 in 7 mi SW 9.2 mph - -   Clear
11:50 PM 42.8 °F 37.5 °F 42.8 °F 100% 30.51 in - SW 9.2 mph - N/A   Clear